This is the latest recevied weather packets stored in our database for station/object WA6MHA-11. If no packets are shown the sender has not sent any weather packets the latest 1 day(s).
| Time | Temp. | Humidity | Pressure | Rain* | Wind** | Luminosity | Snow |
|---|---|---|---|---|---|---|---|
| 1778022435 | 21.11° C | 31% | 1014.8 hPa | 0 mm | 4.47 m/s, 186° | - | - |
| 1778022194 | 21.67° C | 31% | 1014.9 hPa | 0 mm | 1.79 m/s, 209° | - | - |
| 1778021952 | 22.22° C | 31% | 1014.9 hPa | 0 mm | 3.58 m/s, 180° | - | - |
| 1778021469 | 22.22° C | 31% | 1014.9 hPa | 0 mm | 2.24 m/s, 199° | - | - |
| 1778021228 | 21.67° C | 30% | 1014.9 hPa | 0 mm | 4.47 m/s, 210° | - | - |
| 1778020987 | 21.67° C | 30% | 1015 hPa | 0 mm | 3.58 m/s, 182° | - | - |
| 1778020746 | 21.67° C | 30% | 1015 hPa | 0 mm | 3.58 m/s, 198° | - | - |
| 1778020263 | 21.11° C | 29% | 1015 hPa | 0 mm | 1.34 m/s, 232° | - | - |
| 1778020021 | 21.11° C | 28% | 1015.1 hPa | 0 mm | 1.79 m/s, 202° | - | - |
| 1778019780 | 21.67° C | 28% | 1015.1 hPa | 0 mm | 1.34 m/s, 196° | - | - |
| 1778019542 | 21.67° C | 28% | 1015.1 hPa | 0 mm | 1.79 m/s, 142° | - | - |
| 1778019058 | 22.78° C | 27% | 1015.1 hPa | 0 mm | 3.58 m/s, 193° | - | - |
| 1778018816 | 23.33° C | 27% | 1015 hPa | 0 mm | 0 m/s | - | - |
| 1778018574 | 23.33° C | 27% | 1015.1 hPa | 0 mm | 1.79 m/s, 205° | - | - |
| 1778018333 | 23.89° C | 27% | 1015.1 hPa | 0 mm | 0.89 m/s, 153° | - | - |
| 1778018092 | 24.44° C | 27% | 1015.1 hPa | 0 mm | 1.34 m/s, 212° | - | - |
| 1778017850 | 24.44° C | 27% | 1015.2 hPa | 0 mm | 1.34 m/s, 172° | - | - |
| 1778017609 | 25° C | 27% | 1015.2 hPa | 0 mm | 1.34 m/s, 292° | - | - |
| 1778016887 | 24.44° C | 27% | 1015.2 hPa | 0 mm | 1.34 m/s, 244° | - | - |
| 1778016403 | 23.89° C | 26% | 1015.2 hPa | 0 mm | 1.79 m/s, 165° | - | - |
| 1778016162 | 24.44° C | 27% | 1015.2 hPa | 0 mm | 3.13 m/s, 173° | - | - |
| 1778015678 | 24.44° C | 27% | 1015.3 hPa | 0 mm | 0.89 m/s, 228° | - | - |
| 1778015437 | 24.44° C | 28% | 1015.3 hPa | 0 mm | 2.24 m/s, 180° | - | - |
| 1778014956 | 25° C | 28% | 1015.2 hPa | 0 mm | 2.24 m/s, 208° | - | - |
| 1778014473 | 24.44° C | 29% | 1015.3 hPa | 0 mm | 1.79 m/s, 155° | - | - |
* Rain since midnight (hover to see other rain measurements)
** Current wind speed in m/s (hover to see current wind gust speed)